Theta_e
301 301 301 302 302 302 303 303 303 303 306 306 307 308 308 307 307 310 310 313 312 313 314 312 312 310 310 308 310 312 314 312
299 298 298 299 300 300 300 300 301 301 302 302 301 304 307 307 307 307 308 310 312 311 308 309 309 308 310 310 310 312 311 310
297 296 296 297 297 298 298 298 299 299 300 300 300 302 307 308 307 308 308 309 310 310 309 308 305 306 306 308 309 309 309 307
295 296 296 296 296 296 297 297 297 299 298 298 301 301 302 303 305 307 309 308 307 306 304 304 303 305 305 305 307 307 309 306
294 294 295 295 296 296 294 295 297 297 297 298 299 300 301 303 305 303 303 302 301 301 300 301 302 304 303 302 305 308 307 307
294 294 294 295 295 294 294 295 295 295 295 296 298 299 300 301 301 300 298 301 301 301 301 303 305 305 302 301 303 307 302 301
294 295 294 294 293 294 293 293 293 294 295 295 297 298 298 298 298 298 299 300 299 301 303 303 302 301 299 300 303 301 300 300
294 294 293 292 293 293 292 292 292 293 294 295 297 299 298 298 298 299 299 301 301 300 299 299 299 297 297 297 300 300 298 298
294 293 291 292 293 294 293 294 293 294 296 296 297 297 298 298 299 298 298 298 297 297 296 297 297 297 296 296 297 298 298 297
292 291 291 293 295 295 293 293 295 296 296 296 296 297 298 299 299 299 298 297 296 295 295 294 295 296 297 296 296 296 298 296
292 291 292 294 295 296 294 295 296 296 296 296 297 298 299 299 297 296 296 295 295 294 293 293 293 295 296 296 295 295 297 295
292 292 292 293 295 296 297 297 297 296 295 295 295 294 294 297 297 296 295 294 293 293 292 292 293 294 295 296 296 296 297 297
293 293 293 294 295 296 297 297 297 295 294 294 294 293 293 293 293 294 294 294 295 293 293 294 293 292 294 294 292 294 295 297
293 293 294 295 295 296 296 297 296 295 293 293 293 293 293 293 293 292 292 292 293 292 293 293 294 291 291 291 291 291 292 293
293 293 294 295 295 295 297 297 297 296 294 295 295 294 293 292 292 290 288 290 292 291 290 291 291 291 291 292 291 292 292 293
295 295 295 296 296 295 297 298 297 296 296 296 295 293 291 292 292 291 290 289 288 290 291 291 291 291 291 291 291 292 291 291
295 295 295 295 295 295 297 296 296 296 295 295 294 293 292 292 290 289 289 288 287 288 288 291 291 291 292 292 292 290 290 290
294 293 295 295 295 296 297 296 294 295 295 295 293 291 291 290 290 289 289 289 289 289 289 289 290 291 290 290 292 291 290 289
295 295 296 296 295 297 297 296 295 294 294 293 294 293 292 291 290 289 289 289 288 288 287 287 287 292 291 291 291 291 291 291
295 295 295 296 297 297 297 295 295 294 294 294 293 292 292 291 290 290 289 289 289 289 289 291 288 290 290 290 290 290 290 290
Wind_Speed
13 12 12 13 14 14 14 12 12 7 6 7 7 7 5 6 5 4 3 4 4 5 6 4 5 3 4 4 5 8 7 5
11 10 11 12 12 13 13 13 10 12 12 8 6 6 9 7 7 7 6 5 5 3 3 2 4 4 5 5 4 6 8 1
15 17 17 17 17 15 14 13 11 11 12 11 7 7 10 10 9 7 5 5 5 3 1 3 4 4 5 3 4 5 9 4
21 19 18 16 16 15 15 14 13 11 10 11 10 8 10 12 9 6 4 4 5 5 5 5 5 4 5 5 5 6 8 6
17 17 16 15 15 16 16 16 15 14 12 12 10 9 9 11 3 3 4 3 4 6 6 6 6 6 2 6 8 7 4 5
16 14 16 16 16 16 15 14 13 13 12 11 10 9 7 4 5 5 3 1 4 5 6 5 4 2 6 7 7 2 6 5
15 15 16 17 16 16 14 14 12 12 11 10 9 8 5 5 5 4 3 3 3 4 4 2 2 4 6 2 7 8 9 9
14 16 15 15 15 14 13 13 11 9 9 9 7 7 3 4 4 4 4 3 4 4 6 7 10 6 10 11 8 6 10 7
15 14 13 15 15 13 12 11 10 8 6 6 4 5 5 3 3 3 3 3 5 6 8 9 9 8 12 17 14 9 7 7
14 13 14 13 14 10 10 10 10 6 3 3 3 4 4 4 3 3 7 6 8 8 9 8 7 8 13 14 14 10 6 7
12 13 12 11 12 9 9 10 8 6 5 5 4 5 7 9 8 8 7 7 7 7 7 7 6 5 6 8 9 7 4 1
11 12 12 11 11 11 10 10 10 10 10 11 10 10 10 10 8 7 7 7 8 8 8 9 7 5 4 4 4 4 3 1
10 10 10 10 10 10 10 10 9 10 10 10 10 9 10 10 9 8 9 7 8 9 8 7 5 1 3 6 6 5 4 5
8 9 9 10 9 9 10 10 9 9 10 8 8 8 8 7 7 9 13 10 9 7 5 1 2 2 5 5 5 6 10 9
8 8 8 8 8 9 9 8 8 12 11 8 7 8 7 7 7 6 6 5 6 5 4 2 3 2 10 12 12 8 10 10
7 7 7 7 8 8 6 4 4 5 4 8 6 4 3 3 4 5 4 4 3 3 6 5 7 9 9 10 11 10 6 7
6 7 8 8 7 6 5 5 5 5 3 1 3 2 3 5 4 4 4 4 3 3 4 7 7 10 12 14 12 5 7 9
5 6 6 6 5 5 5 6 6 5 4 7 6 5 4 3 3 3 3 3 4 4 4 3 4 8 8 7 8 7 7 7
5 5 5 4 5 5 6 6 6 5 4 3 7 5 5 5 4 4 4 5 5 5 5 5 9 9 8 8 9 9 9 8
5 5 4 3 5 5 6 7 7 6 5 3 4 4 4 5 4 4 4 4 5 6 5 8 10 5 5 6 7 8 8 8
Wind_Direction
11 6 4 357 352 347 339 340 335 332 357 347 335 319 314 291 294 288 295 288 314 297 305 333 309 338 323 318 314 311 324 311
355 353 344 332 327 325 327 326 329 326 318 309 298 308 303 285 273 271 266 268 263 249 260 323 353 326 315 319 330 340 323 354
347 336 329 327 323 318 316 310 317 313 311 306 297 309 302 277 260 258 261 261 270 231 354 322 288 292 295 307 325 334 291 170
328 323 325 320 318 316 316 316 312 310 304 299 296 291 292 290 284 290 279 359 351 333 344 311 292 282 285 303 318 289 257 159
325 323 322 323 320 315 309 308 314 310 303 302 298 286 294 319 347 320 19 359 304 291 277 268 282 273 304 309 294 269 152 162
328 327 322 318 318 313 307 309 305 302 300 303 298 303 305 321 316 311 306 345 336 312 295 286 266 287 310 291 279 123 75 57
326 323 324 318 316 314 308 302 298 297 295 300 306 311 316 328 322 344 7 9 315 304 286 303 27 8 356 10 108 94 81 66
328 326 320 319 317 310 302 298 293 285 290 296 310 311 2 349 14 20 19 8 41 32 37 46 63 53 54 70 85 84 77 67
330 326 322 316 313 309 316 310 305 280 289 301 314 10 343 352 23 21 333 63 70 69 68 56 51 54 61 65 64 79 85 77
333 328 325 325 325 337 340 355 0 26 0 352 6 323 344 316 306 46 67 72 72 66 71 63 52 56 70 71 76 67 92 119
333 329 330 343 344 353 2 4 5 13 21 28 31 16 40 51 64 65 68 68 69 67 69 67 60 63 67 64 60 21 17 75
328 335 346 358 354 4 18 22 30 39 46 52 52 52 49 50 61 63 69 70 73 71 76 81 86 65 12 2 332 338 344 359
332 341 348 360 4 22 26 30 41 53 56 59 58 57 61 63 53 65 78 64 84 99 117 130 138 114 308 321 323 304 289 271
347 353 360 6 19 32 36 37 50 64 68 64 61 65 63 63 70 81 54 67 63 63 59 45 310 16 344 279 238 18 16 43
356 2 4 11 25 36 42 51 68 82 83 74 77 85 87 86 79 83 86 43 77 100 125 102 77 293 23 20 8 19 58 49
353 12 24 26 39 37 19 24 27 32 44 99 104 96 88 63 57 68 72 76 64 3 352 1 358 0 360 10 15 33 30 29
3 31 40 45 35 16 6 21 25 16 18 60 104 85 80 87 78 71 70 66 54 29 13 13 26 41 49 48 51 59 58 52
20 42 30 25 11 329 342 4 1 6 26 78 115 113 111 106 91 74 47 31 47 51 46 15 23 37 39 31 32 31 46 54
31 42 35 24 320 331 338 346 0 351 359 75 97 85 80 88 90 78 64 56 55 54 53 60 68 63 55 50 51 45 43 44
55 46 27 336 293 313 325 341 350 344 338 337 90 98 95 92 95 91 84 73 69 65 56 57 53 53 54 57 61 57 51 47